Location: Unspecified
(0.0000°N, 0.0000°E)
Time: 13:12:23
(UTC+00:00)

Hubble Space Telescope - Pass Details

Date: 18 September 2017
Orbit: 538 x 541 km, 28.5° (Epoch: 24 September)

Event Time Altitude Azimuth Distance (km) Brightness Sun altitude
Rises 19:50:36 0° 290° (WNW) 2,670 5.4 -29.1°
Reaches altitude 10° 19:52:54 10° 285° (WNW) 1,781 4.3 -29.7°
Enters shadow 19:55:05 28° 268° (W) 1,026 2.7 -30.3°
